User: anonymous   Login
Location: Daybis Observatory
(33.4273°N, 88.8061°W)
Time: 03:38:39
(UTC-05:00)
Language:

Coronas F rocket - Orbit

View from above orbital plane
View from above orbital plane
View from above satellite
View from above satellite

Ground track
Ground track

The orbit data is extracted from the following two-line orbital elements,

1 26874U 01032B   15214.85704755  .00014490  00000-0  13702-3 0  9991
2 26874 082.4644 267.5580 0009294 336.6623 023.4213 15.66761481785430
Epoch (UTC): 02 August 2015 20:34:08
Eccentricity: 0.0009294
inclination: 82.4644°
perigee height: 362 km
apogee height: 374 km
right ascension of ascending node: 267.5580°
argument of perigee: 336.6623°
revolutions per day: 15.66761481
mean anomaly at epoch: 23.4213°
orbit number at epoch: 78543

The dashed part of the orbit path shows where the satellite is in the earth's shadow,  

DLR